Regional Weather Roundup
Issued by NWS Little Rock, AR

Home | Current Version | Previous Version | Text Only | Print | Product List | Glossary On
Versions: 1 2 3 4 5 6 7 8 9 10 11 12 13 14 15 16 17 18 19 20 21 22 23 24 25 26 27 28 29 30 31 32 33 34 35 36 37 38 39 40 41 42 43 44 45 46 47 48 49 50
000
ASUS44 KLZK 182205
RWRLZK

WEATHER ROUNDUP FOR ARKANSAS
NATIONAL WEATHER SERVICE LITTLE ROCK AR
400 PM CST THU JAN 18 2018

NOTE: "FAIR" INDICATES FEW OR NO CLOUDS BELOW 12,000 FEET WITH NO
SIGNIFICANT WEATHER AND/OR OBSTRUCTIONS TO VISIBILITY.

ARZ001-003-010-029-182300-
NORTHWEST ARKANSAS

CITY           SKY/WX    TMP DP  RH WIND       PRES   REMARKS
FAYETTEVILLE   SUNNY     42   9  25 S16       30.26F
FORT SMITH     SUNNY     46   3  17 SW6       30.32F
HARRISON       SUNNY     47  10  22 SW8       30.24F
BENTONVILLE    SUNNY     43  12  28 SW12      30.26F
ROGERS         SUNNY     43  12  28 S13       30.24F
SILOAM SPGS    SUNNY     43  11  27 SW18      30.25F
HIGHFILL       SUNNY     42  11  28 SW14G21   30.24F
SPRINGDALE     SUNNY     43   7  22 SW16      30.26F
$$

ARZ004-005-016-182300-
NORTH CENTRAL ARKANSAS

CITY           SKY/WX    TMP DP  RH WIND       PRES   REMARKS
BATESVILLE     FAIR      43   7  22 SW10      30.35S
FLIPPIN        SUNNY     47   3  16 VRB7      30.27
MTN HOME       SUNNY     45   9  23 SW8       30.26F
$$

ARZ040-041-182300-
WEST CENTRAL ARKANSAS

CITY           SKY/WX    TMP DP  RH WIND       PRES   REMARKS
MENA           SUNNY     45   7  21 S3        30.33S
MOUNT IDA      SUNNY     44   8  23 VRB5      30.32F
$$

ARZ009-017-025-026-028-182300-
NORTHEAST ARKANSAS

CITY           SKY/WX    TMP DP  RH WIND       PRES   REMARKS
JONESBORO      FAIR      34  20  56 S13       30.38F WCI  25
NEWPORT        FAIR      36  21  54 S15       30.38S
WALNUT RIDGE   FAIR      35  21  56 S15       30.36F WCI  25
BLYTHEVILLE    FAIR      30  19  63 SW12      30.39F WCI  20
$$

ARZ022-023-033-042-044-182300-
CENTRAL ARKANSAS

CITY           SKY/WX    TMP DP  RH WIND       PRES   REMARKS
LITTLE ROCK    FAIR      41  11  29 SW7       30.39F
JACKSONVILLE   FAIR      42  13  31 SE8       30.37F
SEARCY         FAIR      39  18  42 S10       30.39F
HOT SPRINGS    FAIR      43   9  24 SW6       30.37F
RUSSELLVILLE   SUNNY     44   6  21 SW5       30.34F
CLINTON        FAIR      43   7  22 S7        30.35S
$$

ARZ036-182300-
EAST ARKANSAS

CITY           SKY/WX    TMP DP  RH WIND       PRES   REMARKS
WEST MEMPHIS   FAIR      31  23  72 S12       30.42F WCI  22
$$

ARZ050-053-066-070-073-182300-
SOUTHWEST ARKANSAS

CITY           SKY/WX    TMP DP  RH WIND       PRES   REMARKS
ARKADELPHIA    FAIR      40  16  37 S8        30.41F
CAMDEN         FAIR      43  12  28 CALM      30.42S
TEXARKANA      FAIR      41  12  30 SE8       30.40F
EL DORADO      FAIR      41  17  38 S6        30.42F
DE QUEEN       SUNNY     43  10  26 S6        30.36F
$$

ARZ056-057-069-182300-
SOUTHEAST ARKANSAS

CITY           SKY/WX    TMP DP  RH WIND       PRES   REMARKS
PINE BLUFF     FAIR      39  18  42 S6        30.42F
STUTTGART      FAIR      35  23  61 SE9       30.42F WCI  28
MONTICELLO     FAIR      41  11  29 VRB5      30.41F

$$





USA.gov is the U.S. government's official web portal to all federal, state and local government web resources and services.